Home > Weather > Iquique > Past weeks

Flag for Chile Past Weather in Iquique, Chile — Yesterday and Last 2 Weeks

Now
63 °F

Clear.


Feels Like: 63 °F
Forecast: 59 / 69 °F
Wind: 6 mph from South

Location: Iquique / Diego Arac

Current Time: Aug 27, 2016 at 5:33:10 AM

Latest Report: Aug 27, 2016 at 5:00 AM


Visibility: 10 mi

Pressure: 30.07 "Hg

Humidity: 73%

Dew Point: 54 °F

Location of IquiqueLocation

Past Weather in Iquique — Graph

°F

Iquique Temperature Yesterday

Maximum temperature yesterday: 66 °F (at 1:00 PM)
Minimum temperature yesterday: 61 °F (at 8:00 AM)
Average temperature yesterday: 64 °F

High & Low Weather Summary for the Past Weeks

 TemperatureHumidityPressure
High66 °F (Aug 12, 1:00 PM)78% (Aug 23, 12:00 PM)30.15 "Hg (Aug 23, 12:00 PM)
Low55 °F (Aug 23, 6:00 AM)37% (Aug 22, 12:00 PM)29.89 "Hg (Aug 15, 4:00 PM)
Average62 °F68%30.00 "Hg
* Reported Aug 12 3:00 AM — Aug 27 4:00 AM, Iquique, Weather by CustomWeather, © 2016

Note: Actual official high and low records may vary slightly from our data, if they occured in-between our weather recording intervals... More about our weather records

Advertising

Iquique Weather History for the Previous 24 Hours

Scroll right to see more
 ConditionsComfort  
Time TempWeatherWind HumidityBarometerVisibility
4:00 AM
Sat, Aug 27
63 °FOvercast.8 mph73%30.07 "HgN/A
3:00 AM63 °FPassing clouds.7 mph73%30.09 "HgN/A
2:00 AM63 °FPassing clouds.6 mph68%30.12 "HgN/A
1:00 AM63 °FPassing clouds.3 mph73%30.12 "HgN/A
12:00 AM63 °FOvercast.No wind73%30.15 "HgN/A
11:00 PM
Fri, Aug 26
63 °FOvercast.No wind68%30.15 "HgN/A
10:00 PM63 °FOvercast.3 mph73%30.12 "HgN/A
9:00 PM63 °FOvercast.8 mph73%30.07 "HgN/A
8:00 PM63 °FOvercast.12 mph77%30.04 "HgN/A
7:00 PM63 °FPartly sunny.16 mph77%30.01 "HgN/A
6:00 PM64 °FPartly sunny.17 mph73%29.95 "HgN/A
5:00 PM66 °FScattered clouds.15 mph68%29.95 "HgN/A
4:00 PM66 °FPassing clouds.16 mph64%29.95 "HgN/A
3:00 PM66 °FSunny.14 mph56%29.95 "Hg10 mi
2:00 PM66 °FPassing clouds.12 mph56%29.98 "HgN/A
1:00 PM66 °FPassing clouds.10 mph56%30.01 "HgN/A
12:00 PM64 °FPassing clouds.12 mph64%30.04 "HgN/A
11:00 AM64 °FPartly sunny.8 mph60%30.04 "HgN/A
10:00 AM63 °FPartly sunny.8 mph64%30.04 "HgN/A
9:00 AM63 °FPartly sunny.8 mph64%30.04 "HgN/A
8:00 AM61 °FPartly sunny.8 mph72%30.01 "HgN/A
7:00 AM63 °FOvercast.9 mph73%30.01 "HgN/A
6:00 AM63 °FOvercast.9 mph73%30.01 "HgN/A
5:00 AM63 °FOvercast.10 mph77%30.01 "HgN/A
Weather by CustomWeather, © 2016

See weather overviewHow to use our weather pages